TimeEST,TemperatureF,Dew PointF,Humidity,Sea Level PressureIn,VisibilityMPH,Wind Direction,Wind SpeedMPH,Gust SpeedMPH,PrecipitationIn,Events,Conditions,WindDirDegrees,DateUTC
12:53 AM,72.0,64.9,78,30.07,10.0,North,5.8,-,N/A,,Partly Cloudy,350,2012-11-15 05:53:00
1:53 AM,71.1,64.0,78,30.07,10.0,North,4.6,-,N/A,,Mostly Cloudy,10,2012-11-15 06:53:00
2:53 AM,71.1,63.0,75,30.05,10.0,NNE,5.8,-,N/A,,Clear,20,2012-11-15 07:53:00
3:53 AM,72.0,64.0,76,30.04,10.0,NNE,3.5,-,N/A,,Partly Cloudy,20,2012-11-15 08:53:00
4:53 AM,72.0,63.0,73,30.04,10.0,North,4.6,-,N/A,,Scattered Clouds,360,2012-11-15 09:53:00
5:53 AM,70.0,63.0,78,30.06,10.0,NNW,4.6,-,N/A,,Scattered Clouds,340,2012-11-15 10:53:00
6:53 AM,69.1,63.0,81,30.06,10.0,Calm,Calm,-,N/A,,Partly Cloudy,0,2012-11-15 11:53:00
7:53 AM,73.0,64.0,73,30.08,10.0,NNE,4.6,-,N/A,,Scattered Clouds,20,2012-11-15 12:53:00
8:53 AM,77.0,64.9,66,30.09,10.0,Calm,Calm,-,N/A,,Partly Cloudy,0,2012-11-15 13:53:00
9:53 AM,79.0,63.0,58,30.10,10.0,Calm,Calm,-,N/A,,Scattered Clouds,0,2012-11-15 14:53:00
10:53 AM,80.1,62.1,54,30.10,10.0,East,4.6,-,N/A,,Scattered Clouds,90,2012-11-15 15:53:00
11:53 AM,80.1,61.0,52,30.08,10.0,ENE,8.1,-,N/A,,Mostly Cloudy,60,2012-11-15 16:53:00
12:53 PM,82.0,61.0,49,30.06,10.0,East,8.1,-,N/A,,Scattered Clouds,80,2012-11-15 17:53:00
1:53 PM,81.0,61.0,50,30.04,10.0,ENE,6.9,-,N/A,,Mostly Cloudy,70,2012-11-15 18:53:00
2:53 PM,81.0,61.0,50,30.04,10.0,East,9.2,-,N/A,,Scattered Clouds,80,2012-11-15 19:53:00
3:53 PM,79.0,61.0,54,30.04,10.0,East,8.1,-,N/A,,Scattered Clouds,100,2012-11-15 20:53:00
4:53 PM,77.0,60.1,56,30.04,10.0,East,9.2,-,N/A,,Scattered Clouds,90,2012-11-15 21:53:00
5:53 PM,75.9,60.1,58,30.05,10.0,ENE,8.1,-,N/A,,Scattered Clouds,70,2012-11-15 22:53:00
6:53 PM,75.9,62.1,62,30.06,10.0,NE,4.6,-,N/A,,Scattered Clouds,50,2012-11-15 23:53:00
7:53 PM,75.9,63.0,64,30.08,10.0,Calm,Calm,-,N/A,,Mostly Cloudy,0,2012-11-16 00:53:00
8:53 PM,75.0,63.0,66,30.09,10.0,NNE,4.6,-,N/A,,Mostly Cloudy,30,2012-11-16 01:53:00
9:53 PM,75.0,63.0,66,30.08,10.0,North,4.6,-,N/A,,Mostly Cloudy,360,2012-11-16 02:53:00
10:53 PM,73.9,66.0,76,30.08,10.0,North,5.8,-,N/A,,Scattered Clouds,350,2012-11-16 03:53:00
11:53 PM,72.0,64.9,78,30.07,10.0,Variable,3.5,-,N/A,,Mostly Cloudy,0,2012-11-16 04:53:00